Regional Weather Roundup
Issued by NWS Sioux Falls, SD

Home | Current Version | Previous Version | Text Only | Print | Product List | Glossary On
Versions: 1 2 3 4 5 6 7 8 9 10 11 12 13 14 15 16 17 18 19 20 21 22 23 24 25 26 27 28 29 30 31 32 33 34 35 36 37 38 39 40 41 42 43 44 45 46 47 48 49 50
000
ASUS43 KFSD 210110
RWRFSD

WEATHER ROUNDUP FOR SE SOUTH DAKOTA/SW MINNESOTA/NW IOWA
NATIONAL WEATHER SERVICE SIOUX FALLS SD
700 PM CST FRI JAN 20 2017

NOTE: "FAIR" INDICATES FEW OR NO CLOUDS BELOW 12,000 FEET WITH NO
SIGNIFICANT WEATHER AND OR OBSTRUCTIONS TO VISIBILITY.


SDZ038>040-050-052>070-210200-
SOUTHEAST SOUTH DAKOTA

CITY           SKY/WX    TMP DP  RH WIND       PRES   REMARKS
BROOKINGS      FOG       36  36 100 S12       29.42R VSB 1/2
CHAMBERLAIN    CLEAR     32  29  90 CALM      29.35S
HURON          CLOUDY    38  37  97 S6        29.35S
MADISON        CLOUDY    36  36 100 SE10        N/A
MITCHELL       CLEAR     40  38  93 S16       29.38S
SIOUX FALLS    DRZL/FOG  39  39 100 SE12      29.45R VSB 1
WINNER         FAIR      34  28  79 SW5       29.34S WCI  30
YANKTON        CLOUDY    39  37  93 SE9       29.41S
$$

MNZ071-072-080-081-089-090-097-098-210200-
SOUTHWEST MINNESOTA

CITY           SKY/WX    TMP DP  RH WIND       PRES   REMARKS
FAIRMONT       FOG       35  34  96 SE9       29.54R VSB 3/4 WCI  28
JACKSON        FOG       34  34 100 SE6       29.52R VSB 1/2 WCI  29
LUVERNE        CLOUDY    36  34  93 S7        29.47R FOG
MARSHALL       FOG       36  36 100 SE12      29.49R VSB 1
MONTEVIDEO     FOG       34  34 100 S12       29.51R VSB 1   WCI  25
PIPESTONE      DRZL/FOG  37  37 100 S10       29.44S VSB 1/2
REDWOOD FALLS  CLOUDY    35  34  96 SE10      29.51R FOG     WCI  27
TRACY          CLOUDY    37  37 100 SE8       29.49R FOG
WINDOM         FOG       36  36 100 SE7       29.51R VSB 1/2
WORTHINGTON    FOG       35  35 100 SE9       29.49R VSB 1/2 WCI  28
$$

IAZ001>003-012>014-020>022-031-032-NEZ013-014-SDZ071-210200-
NORTHWEST IOWA

CITY           SKY/WX    TMP DP  RH WIND       PRES   REMARKS
CHEROKEE       CLOUDY    37  37 100 SE5       29.48S
DENISON        CLOUDY    39  39 100 E9        29.45F FOG
ESTHERVILLE    FOG       34  34 100 SE8       29.51R VSB 3/4 WCI  27
LE MARS        CLOUDY    39  39 100 SE7       29.47S
ORANGE CITY    CLOUDY    37  37 100 SE5       29.46F FOG
SHELDON        CLOUDY    37  37 100 SE12      29.46S
SIOUX CITY     CLOUDY    40  39  97 SE8       29.45F
SPENCER        CLOUDY    36  36 100 E8        29.49F FOG
STORM LAKE     FOG       36  36 100 SE8       29.48S VSB<1/4
$$

ABBREVIATIONS USED IN REMARKS
   TC - TEMPERATURE IN CELSIUS
  WCI - WIND CHILL INDEX
   HX - HEAT INDEX
  VSB - VISIBILITY




USA.gov is the U.S. government's official web portal to all federal, state and local government web resources and services.